METEOR 2-7 DEB, 45515

Orbit data source: Space-Track

METEOR 2-7 DEB, 45515 is space debris in LEO originally from a launch on Thu, 12 Feb 1981 UTC launched from the Plesetsk Missile And Space Complex (PKMTR). Debris objects in space refer to the collection of defunct objects orbiting the Earth. Examples of debris include non-operational satellites, rocket bodies, and fragments generated from explosions, collisions, or faulty payload assembly.

Loading next visibility...
Identifier
45515, 1981-043AA
Orbit
LEO
Country
Flag of CISCIS
Related business
Manufacturer
Unknown
Mission
Spacecraft
Bus & Motor
Unknown
Mass
Unknown
Launch date (UTC)
1981-02-12 (45 years ago)
Launch vehicle
Unknown
Launch site
Plesetsk Missile And Space Complex (PKMTR)
Object type
Payload
Rocket body
Debris
Shape & HBR
Unknown
Radar Cross Section
Small (<0.1 m²)

Expand to show TLE details & history
Last TLE update: 1 week ago

TLE from 1 week ago
0 METEOR 2-7 DEB
1 45515U 81043AA  25253.47128682  .00004556  00000-0  14223-2 0  9995
2 45515  81.2519 295.9012 0007577  64.4761   1.2034 14.40680762612052
Epoch: 2025-09-10T11:18Z
TLE epoch observation values (Epoch: 2025-09-10T11:18:39.181Z)
Latitude
64.33702°
Longitude
155.06664°
Altitude
761.901 km
Speed
7.482 km/s
True Right ascension
20h 57m 54s
True Declination
64° 12' 09"
Sunlit
Object was in daylight at epoch
Visualization orbit readout
Latitude
Unknown
Longitude
Unknown
Altitude
Unknown
Speed
Unknown
Apparent Right ascension
Unknown
Apparent Declination
Unknown
Sunlit
N/A
Visualization observer readout
Local Sidereal Time
00:43:07
Azimuth
Unknown
Elevation
Unknown
Doppler factor
Unknown
Orbital elements
Apogee altitude
758.787 km
Perigee altitude
747.979 km
Semi-major axis
7,131.52 km
Eccentricity
0.00076
Inclination
81.2519°
RAAN
295.9012°
Arg. of periapsis
64.4761°
True anomaly
1.20523°
Mean anomaly
1.2034°
Eccentric anomaly
1.20431°
Mean motion
3.60388 °/min
Orbital period
99.89 mins
BSTAR
0.0014223
Loading maneuver chart data...
Computing Atmospheric mass density...
Loading historical data...
Loading historical data...
Loading historical data...
Loading historical data...
Loading historical data...
Loading historical data...
Loading historical data...

Documentation

Showing up to 5 results
|